Location: Unspecified
(0.0000°N, 0.0000°E)
Time: 21:28:00
(UTC+00:00)

UNISAT 6 - Visible Passes

Search period start: 02 July 2020 00:00
Search period end: 12 July 2020 00:00
Orbit: 608 x 688 km, 97.7° (Epoch: 02 July)

Date Brightness Start Highest point End Pass type
(mag) Time Alt. Az. Time Alt. Az. Time Alt. Az.
02 Jul ? 18:42:10 10° E 18:42:58 10° E 18:42:58 10° E visible
02 Jul ? 20:15:12 10° NNW 20:19:26 35° WNW 20:20:42 30° WSW visible
03 Jul ? 19:05:07 10° NE 19:08:49 24° ESE 19:09:09 24° ESE visible
03 Jul ? 20:42:23 10° NW 20:45:13 16° WNW 20:46:55 14° WSW visible
04 Jul ? 19:30:08 10° NNE 19:34:39 54° ESE 19:35:22 48° SE visible
05 Jul ? 19:55:53 10° N 20:00:28 65° WNW 20:01:33 48° SW visible
06 Jul ? 18:47:40 10° ENE 18:49:51 13° ESE 18:50:01 13° ESE visible
06 Jul ? 20:22:20 10° NNW 20:26:16 28° WNW 20:27:45 23° WSW visible
07 Jul ? 19:11:41 10° NE 19:15:40 29° E 19:16:12 29° ESE visible
07 Jul ? 20:50:07 10° NW 20:52:03 13° WNW 20:53:57 10° WSW visible
08 Jul ? 19:36:55 10° NNE 19:41:29 69° ESE 19:42:23 53° SSE visible
09 Jul ? 20:02:52 10° N 20:07:18 50° WNW 20:08:34 38° SW visible
10 Jul ? 18:53:48 10° ENE 18:56:41 17° ESE 18:57:00 16° ESE visible
10 Jul ? 20:29:34 10° NNW 20:33:06 22° WNW 20:34:45 18° WSW visible
11 Jul ? 19:18:18 10° NE 19:22:30 37° ESE 19:23:10 35° ESE visible
